OpenBCM V1.08-5-g2f4a (Linux)

Packet Radio Mailbox

IZ3LSV

[San Dona' di P. JN]

 Login: GUEST





  
CX2SA  > KEP      02.05.20 00:19l 94 Lines 3933 Bytes #999 (0) @ ARL
BID : ARLK035
Read: GUEST
Subj: ARLK035 Keplerian data
Path: IZ3LSV<I0OJJ<I0OJJ<N6RME<CX2SA
Sent: 200501/2208Z @:CX2SA.SAL.URY.SOAM #:30450 [Salto] FBB7.00e $:ARLK035

>From cx2sa%cx2sa.sal.ury.soam@i0ojj.ampr.org Sat May  2 00:15:21 2020
Received: from i0ojj.ampr.org by i0ojj.ampr.org (JNOS2.0n.beta) with SMTP
	id AA109505 ; Sat, 02 May 2020 00:15:21 +0200
Message-Id: <ARLK035@i0ojj.bbs>
>From: cx2sa@cx2sa.sal.ury.soam
X-JNOS-User-Port: Telnet   (i0ojj @ 44.134.32.240)  -> Sending message

From: CX2SA@CX2SA.SAL.URY.SOAM
To  : KEP@ARL


ZCZC SK35
QST de W1AW
Keplerian Bulletin 35  ARLK035
>From ARRL Headquarters
Newington, CT  May 1, 2020
To all radio amateurs

SB KEP ARL ARLK035
ARLK035 Keplerian data

Special thanks to AMSAT-NA (AMSAT.ORG) for the following Keplerian
data.

Decode 2-line elsets with the following key:
1 AAAAAU 00  0  0 BBBBB.BBBBBBBB  .CCCCCCCC  00000-0  00000-0 0  DDDZ
2 AAAAA EEE.EEEE FFF.FFFF GGGGGGG HHH.HHHH III.IIII JJ.JJJJJJJJKKKKKZ
KEY: A-CATALOGNUM B-EPOCHTIME C-DECAY D-ELSETNUM E-INCLINATION F-RAAN
G-ECCENTRICITY H-ARGPERIGEE I-MNANOM J-MNMOTION K-ORBITNUM Z-CHECKSUM

0 AO-07
1 7530U 74089B   20122.15805738 -.00000019 +00000-0 +16538-3 0  9994
2 7530 101.7960 092.1708 0012596 094.6593 332.2815 12.53643213080065
0 FO-29
1 24278U 96046B   20122.28816889 -.00000014  00000-0  19583-4 0  9991
2 24278  98.5770 238.3128 0351149 136.8913 226.0303 13.53097580170759
0 ISS
1 25544U 98067A   20122.73347697  .00001876  00000-0  41703-4 0  9994
2 25544  51.6449 218.3842 0001300 215.5685 275.9135 15.49341309224813
0 SO-50
1 27607U 02058C   20122.19932986 -.00000031  00000-0  16248-4 0  9991
2 27607  64.5540 158.8450 0053951 189.9064 170.0980 14.75629834933884
0 CO-55
1 27844U 03031E   20122.50786332  .00000057  00000-0  45285-4 0  9993
2 27844  98.6832 130.9493 0009719 184.3239 175.7856 14.22234500873468
0 RS-22
1 27939U 03042A   20122.38715436  .00000109  00000-0  28186-4 0  9992
2 27939  98.0828 257.8511 0013940 138.3536 221.8727 14.66854934887116
0 RS-30
1 32953U 08025A   20122.31403532  .00000037  00000-0  19437-3 0  9992
2 32953  82.5009 307.2286 0019490 154.5056 205.6989 12.43095346541775
0 KKS-1
1 33499U 09002H   20122.18514004  .00000081  00000-0  19855-4 0  9990
2 33499  98.3230 335.5909 0007805 277.3494  82.6828 14.75525247606047
0 AO-71
1 37854U 11061E   20122.49842998  .00000936  00000-0  54882-4 0  9995
2 37854 101.7006 189.5338 0158732 201.3632 158.0906 15.07168433464858
0 AO-73
1 39444U 13066AE  20121.96924751 +.00000303 +00000-0 +43281-4 0  9997
2 39444 097.5597 124.8388 0059485 066.7394 294.0067 14.82106706346330
0 UKUBE 1
1 40074U 14037F   20122.44621531  .00000303  00000-0  43367-4 0  9996
2 40074  98.4549 307.9845 0003388 277.8833  82.2005 14.84242915314782
0 XW-2A
1 40903U 15049E   20122.49209244  .00002287  00000-0  53807-4 0  9992
2 40903  97.2922 171.4015 0014954  76.1867  30.9548 15.42937998259233
0 XW-2F
1 40910U 15049M   20122.56323106  .00000913  00000-0  48331-4 0  9992
2 40910  97.4686 126.8092 0015124 157.7548 319.7254 15.17862871255227
0 XW-2B
1 40911U 15049N   20122.56983949  .00000469  00000-0  27723-4 0  9998
2 40911  97.4764 125.0054 0014171 167.9974 307.7917 15.16178166255062
0 IO-86
1 40931U 15052B   20120.02039352 -.00000221  00000-0 -12022-3 0  9996
2 40931   5.9971 327.9084 0013935 297.0073 299.9149 14.76631531247937
0 CAS-4B
1 42759U 17034B   20122.45002502  .00000304  00000-0  31980-4 0  9999
2 42759  43.0196 285.3015 0009707  92.4148   5.0865 15.09803607158868
0 CAS-4A
1 42761U 17034D   20122.51968240  .00000204  00000-0  25835-4 0  9990
2 42761  43.0192 284.2491 0010166  94.2910 312.0502 15.09881166158877
0 AO-91
1 43017U 17073E   20122.23106939 +.00000289 +00000-0 +28202-4 0  9990
2 43017 097.7246 036.2879 0256456 203.9309 154.9811 14.78894354132188
0 AO-92
1 43137U 18004AC  20122.14665564  .00001051  00000-0  46269-4 0  9993
2 43137  97.4481 193.6230 0008208 212.9582 147.1144 15.24038402127836

Keplerian bulletins are transmitted twice weekly from W1AW.  The
next scheduled transmission of these data will be Tuesday, May 5,
2020, at 2230z on Baudot and BPSK31.
NNNN



Read previous mail | Read next mail


 14.10.2025 05:02:11lGo back Go up